星链-31268 (STARLINK-31268 )

导读

STARLINK-31268是美国SpaceX星链星座中的一颗卫星,于2024年3月16日发射升空,属于星链互联网卫星组网的一部分。星链系统旨在为全球提供低延迟、高速率的宽带互联网服务,该卫星的成功发射进一步扩充了星链星座的在轨规模,推进了全球卫星互联网覆盖网络的建设。

基本信息
目录编号:
59245
目录名称:
STARLINK-31268
国际标识:
2024-049Q
轨道中心:
EARTH
卫星名称:
星链-31268
卫星全名:
星链-31268 (STARLINK-31268 )
卫星状态:
已陨落 最后检测时间 2026-04-13
发射日期:
2024-03-16 UTC
国别 :
美国 (US)
星等 :
--
该卫星已列入 空间交会检测服务 Space Conjunction Data Service (SCDS) ,当前飞行风险评估等级: 无高风险
轨道信息
数据来源 国际轨道数据
星历时间: 2026-04-13T05:23:21+0800
轨道信息已过期151天
半长轴: 6591.764km
偏心率: 0.0018112
轨道倾角: 42.973°
近地点辐角 313.887°
升交点赤经 270.081°
平近点角 46.052°
近地点: 201.687km
远地点: 225.567km
周期: 88.769分钟
每日圈数: 16.221847
详细信息
固有亮度:
5
最大亮度:
0.3
卫星平台:
Starlink v2.0 mini
覆盖范围:
全球
运营商:
太空探索技术公司
运营商所在国:
美国
制造商(研发单位):
太空探索技术公司
制造商所在国:
美国
使用方式:
暂无
卫星简介
星链(Starlink)计划是由太空探索技术公司(SpaceX)提出的一个巨型低轨卫星互联网星座项目,计划在2019年至2024年间在太空搭建由约1.2万颗卫星组成的“星链”网络,其中1584颗将部署在地球上空550千米处的近地轨道,并从2020年开始工作。该卫星仍在工作。
与全量物体交会距离演化趋势
与全量物体交会风险概率演化趋势